Location: Bishop�s Knoyle
(51.0728°N, 2.1714°W)
Time: 21:42:26
(UTC+00:00)

N. Korean satellite - Pass Details

Date: 06 October 2021
Orbit: 450 x 495 km, 97.3° (Epoch: 21 October)

Event Time Altitude Azimuth Distance (km) Brightness Sun altitude
Rises 04:36:31 0° 26° (NNE) 2,565 10.8 -16.6°
Reaches altitude 10° 04:39:02 10° 44° (NE) 1,686 10.1 -16.2°
Maximum altitude 04:41:44 20° 92° (E) 1,202 9.5 -15.8°
Drops below altitude 10° 04:44:27 10° 141° (SE) 1,687 9.7 -15.4°
Sets 04:46:57 0° 159° (SSE) 2,568 10.4 -15.0°
